Preview of NWS' New Version of Forecast
This preview is not operational and should not be used for support decisions.

Regional Weather Roundup (RWR)

Issued by Gray - Portland, ME (GYX)

                            
529 
ASUS41 KGYX 181010
RWRGYX
WEATHER ROUNDUP FOR MAINE AND NEW HAMPSHIRE
NATIONAL WEATHER SERVICE GRAY ME
600 AM EDT MON JUN 18 2018

MEZ002-005-006-010-012-015-018-020-021-024-026-027-029-181100-
MAINE
  
CITY           SKY/WX    TMP DP  RH WIND       PRES   REMARKS
PORTLAND       CLOUDY    56  55  97 SW6       29.93F                  
SANFORD        FAIR      59  56  89 SW6       29.94F                  
BAR HARBOR     LGT RAIN  55  53  93 CALM      29.95S                  
WISCASSET      FAIR      55  54  96 CALM      29.95F                  
ROCKLAND       FAIR      53  52  96 CALM      29.94S                  
FRYEBURG       FAIR      58  57  97 CALM      29.92F                  
LEWISTONAUBURN FAIR      55  53  93 S5        29.92F                  
AUGUSTA        MOCLDY    55  54  96 S6        29.92F                  
WATERVILLE     RAIN      54  54 100 VRB3      29.88F                  
BANGOR         CLOUDY    55  53  93 S7        29.92F                  
GREENVILLE       N/A     53  52  96 E6        29.87F                  
MILLINOCKET    LGT RAIN  54  50  86 S5        29.89F                  
HOULTON        LGT RAIN  54  51  90 S8        29.86F                  
PRESQUE ISLE   LGT RAIN  52  50  93 SE8       29.83F                  
FRENCHVILLE    LGT RAIN  54  50  86 S12       29.77F                  
CARIBOU        LGT RAIN  53  49  86 S12       29.81F FOG              
$$

NHZ002-005-008-009-011-012-014-181100-
NEW HAMPSHIRE
  
CITY           SKY/WX    TMP DP  RH WIND       PRES   REMARKS
ROCHESTER      FAIR      58  56  93 CALM      29.93F                  
NASHUA         FAIR      67  58  72 CALM      29.96F                  
MANCHESTER     MOCLDY    69  54  58 S8        29.93F                  
CONCORD        FAIR      60  57  89 CALM      29.94F                  
LACONIA        FAIR      65  57  75 W5        29.94F                  
PLYMOUTH         N/A     58  56  92 CALM      29.94S                  
BERLIN         MOCLDY    62  58  86 CALM      29.92S                  
WHITEFIELD     FAIR      61  56  83 CALM      29.91F HAZE             
JAFFREY        FAIR      66  56  70 SW6       30.00F                  
KEENE          FAIR      59  56  89 CALM      29.98F                  
LEBANON        FAIR      64  56  75 SW3       29.92F                  
MT WASHINGTON  MOCLDY    54  52  94 W39G54      N/A                   
$$

VTZ005-007-008-181100-
VERMONT
  
CITY           SKY/WX    TMP DP  RH WIND       PRES   REMARKS
ST JOHNSBURY     N/A     67  54  63 MISG      29.88S                  
MONTPELIER     FAIR      74  61  63 MISG      29.93F                  
BURLINGTON     FAIR      75  57  53 S17G25    29.85F                  
$$

MAZ007-012-024-CTZ003-RIZ002-NYZ038-NYZ072-181100-
SOUTHERN NEW ENGLAND AND NY
  
CITY           SKY/WX    TMP DP  RH WIND       PRES   REMARKS
BOSTON         MOCLDY    68  57  68 SW15      29.97F                  
WORCESTER      FAIR      66  56  70 SW12      30.01F                  
NANTUCKET      FAIR      61  60  97 SW8       30.08R                  
PROVIDENCE     MOCLDY    65  62  90 SW6       30.03F                  
HARTFORD       MOCLDY    66  59  78 S8        30.00F                  
ALBANY         MOCLDY    71  57  61 S10       29.96F                  
NEW YORK CITY  MOCLDY    74  64  71 S9        30.04R                  
$$

ANZ081-ANZ082-ANZ150-NHZ014-MEZ023>029-181100-
COASTAL MARINE OBSERVATIONS
  
STATION/POSITION TIME  TEMP    WIND        PRES    WAVE
                       AIR SEA DIR/SP/G            HT/PER
                 (UTC) (F)     (DEG/KT/KT) (MB)    (FT/S)
MOUNT DESERT ROC 1000   56     180/ 16/ 17 1014.2F
MATINICUS ROCK   1000   57     210/ 18/ 19 1013.4F
ISLE OF SHOALS   1000   65     220/ 17/ 17 1013.3F
JEFFREYS LEDGE   0936      58                N/A     2/ 6
$$

.............KEY..............
   WCI - WIND CHILL
   TC  - TEMPERATURE IN CELSIUS
   VSB - VISIBILITY IN MILES
   HX  - HEAT INDEX
   FAIR- INDICATES FEW OR NO CLOUDS BELOW 12,000 FT, WITH NO 
         SIGNIFICANT WEATHER AND/OR OBSTRUCTIONS TO VISIBILITY.